Wind_Speed
44 42 46 44 44 45 47 46 44 43 43 47 48 50 48 45 52 49 47 43 42 44 43 44 45 46 49 54 53 59 58 58 54 53 54 55 55 50 48 49 50 50 54 56 57 59 58 60 62
52 44 47 51 45 47 48 39 45 48 42 50 53 54 52 53 55 48 46 47 43 46 45 47 46 48 53 54 58 59 59 57 54 54 58 59 57 54 48 48 52 55 58 61 65 63 62 62 63
46 50 55 47 52 55 54 50 48 51 53 54 58 55 53 54 55 51 48 45 43 46 43 48 50 52 53 53 58 57 58 59 54 54 61 60 58 56 51 51 52 55 57 58 59 61 65 64 64
58 57 56 52 50 50 54 55 54 56 59 56 57 57 54 54 53 55 53 49 44 42 48 53 59 60 61 58 58 57 61 59 56 57 61 61 61 57 55 56 58 58 58 58 59 63 62 62 62
62 64 57 56 53 47 48 54 54 56 55 59 58 58 57 52 52 51 54 48 48 46 54 62 66 64 57 57 58 58 59 56 59 58 64 64 62 59 59 60 62 60 61 61 62 62 66 65 66
63 63 61 58 58 54 53 52 54 56 58 59 58 58 56 57 47 46 48 51 56 60 59 68 69 62 64 61 60 61 59 59 61 62 68 66 64 61 62 65 65 63 65 63 56 56 58 67 68
66 63 62 59 59 59 61 59 53 56 55 53 57 55 54 52 49 45 52 54 58 63 63 66 67 63 64 61 63 64 63 64 65 66 70 67 66 67 66 69 67 64 61 58 57 54 51 49 54
69 69 66 62 61 64 65 64 57 61 60 51 49 54 52 51 50 54 53 59 61 60 62 64 72 67 66 66 67 68 67 67 65 69 71 69 67 68 72 72 66 63 62 61 60 58 53 53 50
74 66 62 64 67 62 66 65 61 61 61 60 58 52 57 57 55 59 57 58 61 66 67 58 63 72 68 69 72 70 66 67 66 72 70 70 68 70 71 72 66 62 63 58 54 50 51 52 52
77 72 67 69 71 72 69 70 64 64 61 60 59 60 61 60 60 63 57 59 64 67 71 64 57 62 71 73 75 70 67 66 70 71 71 70 69 73 69 65 65 65 59 51 47 48 47 49 50
81 74 74 74 76 78 74 72 73 69 64 64 64 64 63 65 68 67 65 64 67 67 70 69 67 71 68 74 74 70 68 70 71 71 72 70 72 72 69 66 62 59 53 46 45 42 43 44 45
83 80 81 79 80 80 77 78 73 71 64 68 67 68 68 74 74 75 71 69 69 66 72 72 58 75 72 72 68 70 72 72 71 73 72 72 73 71 68 66 59 51 48 46 42 41 38 38 37
74 76 83 82 80 81 84 83 78 71 69 69 70 71 71 76 77 77 74 72 68 71 73 74 62 70 73 70 65 68 70 72 72 70 72 73 73 70 70 64 56 50 42 40 40 40 39 38 38
74 78 76 78 77 76 80 81 79 69 71 71 75 75 75 75 75 74 73 69 68 68 71 65 69 68 72 70 68 70 72 71 70 68 70 73 71 69 67 57 52 45 36 32 33 32 32 36 38
89 88 84 76 75 72 77 76 70 70 75 75 77 78 76 78 73 69 76 77 70 62 68 68 72 68 69 70 71 72 76 72 69 69 70 70 71 67 60 53 46 41 32 26 27 28 27 30 33
88 89 77 71 77 76 87 80 70 79 81 81 80 78 75 77 78 80 82 77 65 67 71 71 75 65 71 71 72 73 73 71 67 68 70 69 68 62 55 51 44 36 29 24 26 30 32 32 33
86 81 81 85 89 85 93 92 77 81 84 80 80 80 81 82 80 80 79 76 73 69 74 75 74 65 72 74 72 73 70 67 67 68 68 68 65 60 56 48 40 34 26 26 29 31 35 35 31
90 96 93 90 93 95 98 98 86 87 89 86 87 86 82 81 80 77 79 78 77 71 72 75 73 72 72 73 71 67 67 65 67 68 68 65 61 55 52 47 40 34 35 38 33 37 38 38 37
94 91 90 88 90 94 98 99 90 92 90 83 79 83 81 81 80 75 78 73 71 74 72 73 74 74 71 70 67 66 63 64 66 66 66 64 58 52 47 43 44 40 42 41 37 37 41 44 44
102 96 90 91 88 90 99 97 90 82 79 79 78 78 81 77 74 73 72 69 69 71 72 71 72 71 70 64 61 61 59 62 64 65 61 59 53 47 42 43 39 36 33 32 34 39 41 41 39
91 88 88 88 86 88 92 85 78 77 74 73 74 75 75 73 70 68 65 60 68 65 66 67 68 65 61 58 56 54 57 59 62 60 55 51 48 43 39 32 28 36 35 31 35 36 33 33 30
90 83 86 86 85 82 86 69 69 71 68 69 67 67 65 66 63 61 60 58 59 60 61 62 59 55 51 50 50 51 55 57 56 54 49 43 44 40 42 42 38 28 24 22 18 15 13 11 12
77 79 82 82 84 81 74 72 54 60 59 54 53 49 52 54 53 53 52 60 54 57 56 53 50 46 44 43 46 51 53 54 50 44 44 39 35 37 35 32 26 22 19 16 14 11 9 7 7
79 77 81 79 79 70 57 64 43 48 44 41 38 38 45 48 51 48 51 49 50 50 48 46 43 38 37 41 46 49 49 45 42 39 37 37 36 32 30 24 20 16 14 12 8 6 4 2 1
83 80 78 76 66 48 50 44 35 38 29 29 33 37 40 45 43 46 47 46 45 44 40 38 32 31 35 42 44 44 44 39 35 31 32 32 31 26 19 21 15 11 11 10 11 10 7 9 9
86 82 77 69 60 49 47 37 37 36 35 32 35 36 41 43 42 42 41 39 37 31 28 24 25 30 38 38 39 40 38 35 27 26 33 25 28 21 20 13 12 10 12 12 12 13 11 11 13
90 94 71 74 68 63 52 47 41 39 38 32 33 34 37 35 37 31 26 24 21 18 20 18 24 33 32 36 37 36 33 27 19 24 28 23 24 17 14 11 10 13 16 16 15 15 17 18 21
102 86 82 75 72 62 53 49 47 39 37 32 31 36 32 27 16 16 13 11 14 19 17 21 28 27 32 34 34 30 25 14 16 22 28 23 20 12 9 9 9 13 16 8 12 15 19 33 41
103 94 86 78 70 62 56 52 52 42 34 36 29 32 22 14 13 11 11 15 18 12 19 24 24 28 30 33 29 25 14 8 13 23 26 22 21 13 8 1 5 9 7 7 17 41 47 44 33
100 94 85 80 68 65 61 54 50 43 37 33 26 23 20 18 17 17 16 16 16 15 21 23 22 28 30 27 23 21 6 4 12 20 24 20 21 13 5 5 4 6 6 14 46 41 41 34 26
Wind_Direction
265 256 264 258 255 259 264 264 264 272 273 275 278 282 284 288 290 295 293 296 299 303 305 302 299 306 305 305 303 303 304 304 299 301 310 307 301 295 291 288 283 275 275 274 270 264 259 258 258
255 253 263 250 253 253 254 263 260 262 268 276 278 280 280 285 286 292 291 295 299 301 300 300 305 308 306 306 304 300 302 302 299 304 305 304 297 293 289 288 283 279 278 277 273 268 263 257 255
250 250 253 259 258 256 256 259 264 266 271 270 276 277 278 287 287 292 288 295 295 293 297 299 304 307 309 302 304 298 298 299 299 304 303 301 297 292 288 285 286 290 289 283 275 270 265 259 256
255 254 257 251 259 255 255 256 261 269 269 269 273 273 276 283 285 287 288 291 287 294 298 299 303 304 306 301 300 301 299 301 299 301 301 299 299 295 291 292 294 293 290 283 277 272 267 262 256
253 257 258 250 255 258 260 258 262 265 267 269 270 276 276 279 284 284 291 292 292 292 299 300 304 306 306 303 304 304 301 300 300 300 306 302 300 296 297 298 298 295 291 285 279 271 267 263 258
255 257 260 258 255 254 256 257 263 267 267 269 269 268 274 277 280 285 293 288 294 298 297 302 304 306 305 304 307 306 303 304 302 304 307 306 302 298 299 302 302 300 294 288 282 273 267 260 257
256 256 253 251 257 259 258 254 258 264 266 271 271 272 271 273 277 276 286 290 298 300 296 299 301 304 304 305 306 305 307 304 303 306 309 307 306 303 304 307 305 300 294 292 290 282 273 265 259
253 251 253 259 256 257 261 260 262 267 265 277 271 270 271 277 281 279 285 291 293 293 295 303 299 302 304 305 305 305 306 305 303 308 309 308 305 306 309 308 305 301 298 293 287 280 276 272 264
251 252 254 256 259 259 261 262 259 261 264 266 274 272 276 278 284 285 290 298 302 296 293 295 294 299 301 300 304 303 306 306 307 308 309 307 307 308 311 309 305 300 295 292 286 278 270 265 259
251 250 256 256 258 259 260 260 260 262 264 262 267 275 276 278 280 282 291 299 302 298 297 295 295 296 297 301 303 304 306 307 307 309 308 307 309 311 310 306 304 303 297 290 284 279 270 263 256
253 253 255 254 256 259 262 264 265 266 271 272 272 272 275 281 278 283 287 292 298 296 294 294 298 298 299 299 302 303 306 306 307 309 307 310 311 312 310 309 303 299 294 290 285 278 269 263 254
253 255 257 257 258 259 261 263 267 269 274 274 274 273 276 277 278 281 286 286 294 293 293 294 294 296 297 299 303 302 305 305 308 309 309 311 313 312 310 305 299 295 292 291 285 280 273 265 256
257 257 256 256 259 260 261 264 268 271 273 271 273 273 275 277 280 284 289 289 292 292 293 295 298 295 297 300 301 300 302 306 308 310 312 313 313 311 308 306 300 296 290 286 282 275 271 268 260
253 252 255 258 261 263 266 267 268 271 273 273 274 275 276 280 282 284 289 290 291 294 292 294 296 295 297 297 299 300 301 305 307 310 311 311 312 309 306 304 303 299 296 290 281 273 267 263 263
250 253 254 257 262 265 261 258 266 269 270 273 274 275 279 282 284 285 290 291 292 289 291 293 293 292 293 295 297 299 302 304 308 310 311 311 310 308 306 305 304 305 306 297 283 281 274 269 266
248 250 252 257 258 257 261 260 264 268 269 270 274 276 281 284 287 288 287 289 289 289 286 288 290 290 291 294 297 299 303 305 310 311 311 310 310 308 308 307 307 309 306 294 276 275 273 275 274
252 256 255 256 261 257 260 262 265 268 269 271 275 278 279 283 283 283 283 283 285 284 282 286 286 289 288 291 297 300 302 308 310 310 310 309 308 308 308 308 313 313 304 293 271 269 273 275 271
257 254 255 252 258 260 259 262 261 265 268 273 276 278 283 282 278 279 284 285 286 280 278 281 284 287 288 292 297 301 304 308 309 310 309 308 308 308 310 314 316 311 297 292 281 266 265 265 267
251 256 256 254 258 261 260 262 266 267 271 275 278 278 278 280 282 281 277 284 282 277 278 280 284 287 290 294 296 299 306 307 308 308 308 306 308 308 313 314 312 305 296 289 281 268 265 266 267
256 256 257 257 257 258 260 261 267 272 272 274 275 274 279 279 280 278 279 285 282 280 281 283 285 288 290 293 296 301 305 305 305 307 306 306 308 312 316 314 311 302 299 291 279 270 269 274 272
256 257 254 255 252 259 264 267 270 269 271 270 271 275 276 279 278 279 280 282 276 280 281 283 284 286 290 293 298 303 304 304 304 305 306 308 312 316 314 316 300 301 301 286 276 276 276 276 277
254 255 254 255 255 263 266 269 267 265 268 267 274 277 278 277 277 276 277 278 278 279 281 282 284 287 290 295 301 302 302 304 302 304 305 311 317 318 316 313 309 306 307 308 307 308 302 291 280
250 249 252 254 258 258 262 263 263 267 265 275 279 281 279 276 275 275 273 275 279 279 279 281 284 286 293 300 299 299 302 301 304 307 310 317 320 318 318 317 316 322 328 332 325 317 312 305 287
245 249 251 253 255 259 260 262 267 265 277 276 282 278 279 279 277 276 274 273 273 276 278 281 284 292 299 298 297 300 301 306 306 310 315 324 326 328 325 325 332 337 340 345 347 352 351 339 287
245 247 251 253 259 263 256 262 257 268 271 282 279 281 285 283 281 277 274 272 272 274 277 282 290 298 298 296 299 300 306 306 308 316 326 331 329 329 332 337 349 7 9 14 27 39 54 69 80
240 243 247 253 257 254 254 260 254 267 277 279 282 287 283 284 281 274 273 273 272 274 279 289 295 297 297 296 300 305 306 302 312 323 333 340 337 343 347 342 8 21 13 23 35 37 62 80 87
240 239 243 245 250 253 256 260 261 265 273 282 286 290 285 283 274 276 277 268 267 271 285 289 297 297 296 300 308 307 300 305 320 330 343 337 339 340 351 358 11 7 14 16 31 58 87 81 101
240 240 237 244 247 252 251 256 259 263 271 277 280 289 283 269 271 259 247 256 267 277 281 287 297 297 300 310 309 305 302 314 327 342 341 342 345 341 339 357 24 8 39 32 75 87 106 114 108
237 238 240 240 239 244 245 252 257 258 261 276 286 285 263 233 244 246 251 270 277 286 283 288 298 302 307 314 307 304 309 328 351 344 341 342 346 337 326 302 24 38 16 53 120 115 115 116 112
232 232 233 238 241 243 243 245 257 259 262 269 277 273 237 213 235 249 255 274 287 281 285 293 308 308 316 309 307 301 299 351 353 342 349 344 347 344 298 207 72 76 90 131 127 129 129 131 134
Height
10928 10930 10932 10932 10934 10934 10931 10933 10930 10932 10931 10929 10930 10929 10930 10931 10929 10932 10932 10932 10930 10927 10927 10925 10924 10921 10918 10914 10908 10901 10897 10895 10890 10885 10882 10877 10873 10869 10865 10862 10859 10857 10856 10853 10852 10853 10854 10854 10854
10921 10924 10926 10926 10928 10925 10927 10925 10924 10925 10929 10922 10922 10923 10926 10926 10921 10926 10925 10921 10924 10919 10919 10917 10915 10914 10911 10907 10900 10893 10889 10885 10881 10877 10872 10867 10864 10859 10855 10852 10849 10846 10844 10842 10837 10836 10838 10840 10840
10913 10916 10919 10922 10921 10917 10920 10920 10918 10918 10918 10918 10915 10916 10917 10920 10917 10915 10914 10917 10919 10913 10912 10909 10908 10907 10903 10898 10892 10885 10880 10875 10871 10867 10862 10855 10852 10848 10844 10840 10837 10833 10829 10825 10823 10821 10821 10823 10825
10904 10907 10911 10914 10914 10909 10912 10913 10913 10914 10910 10912 10908 10908 10912 10915 10911 10905 10908 10907 10908 10907 10900 10900 10898 10898 10896 10890 10883 10878 10870 10866 10861 10857 10851 10845 10839 10835 10831 10826 10822 10817 10814 10810 10807 10804 10805 10806 10809
10893 10897 10901 10904 10904 10902 10902 10903 10907 10907 10903 10902 10905 10900 10901 10907 10908 10901 10900 10898 10894 10903 10895 10887 10888 10887 10885 10879 10874 10867 10860 10855 10850 10845 10839 10833 10827 10821 10817 10811 10805 10800 10796 10793 10790 10789 10787 10789 10792
10883 10887 10891 10893 10894 10895 10895 10896 10898 10897 10895 10894 10895 10898 10889 10896 10903 10898 10895 10892 10885 10885 10895 10877 10876 10875 10872 10867 10862 10856 10850 10845 10838 10832 10826 10819 10813 10808 10802 10796 10788 10781 10777 10773 10771 10769 10770 10770 10773
10871 10877 10881 10884 10884 10885 10883 10887 10892 10884 10886 10886 10889 10884 10884 10887 10891 10893 10887 10884 10880 10874 10882 10878 10865 10865 10860 10855 10849 10844 10838 10832 10826 10820 10812 10805 10798 10791 10786 10778 10771 10765 10760 10755 10753 10753 10753 10753 10754
10858 10866 10874 10873 10873 10873 10871 10878 10881 10875 10879 10879 10882 10878 10876 10876 10880 10882 10885 10878 10871 10872 10868 10870 10853 10852 10849 10844 10838 10833 10827 10820 10813 10807 10800 10793 10785 10777 10770 10759 10754 10749 10743 10739 10739 10737 10737 10739 10739
10842 10858 10865 10863 10860 10862 10862 10866 10869 10868 10869 10873 10871 10871 10864 10867 10870 10869 10870 10868 10864 10855 10852 10870 10857 10840 10838 10833 10828 10822 10816 10809 10802 10794 10787 10780 10773 10765 10757 10743 10737 10734 10729 10725 10721 10722 10724 10725 10726
10834 10846 10852 10846 10847 10851 10854 10854 10858 10858 10862 10864 10863 10859 10857 10860 10861 10860 10862 10859 10854 10846 10840 10842 10851 10845 10830 10825 10817 10812 10805 10797 10789 10783 10775 10767 10760 10752 10745 10736 10725 10717 10713 10711 10709 10708 10708 10710 10712
10822 10839 10832 10836 10836 10837 10841 10845 10845 10847 10851 10851 10852 10852 10848 10848 10850 10850 10854 10853 10851 10842 10832 10829 10830 10820 10824 10813 10806 10797 10794 10786 10778 10771 10763 10756 10748 10738 10729 10720 10716 10707 10701 10698 10696 10695 10695 10696 10698
10808 10823 10819 10824 10822 10825 10833 10832 10836 10836 10839 10836 10839 10839 10838 10836 10839 10840 10845 10844 10841 10834 10822 10818 10825 10805 10806 10805 10799 10786 10781 10773 10766 10758 10750 10743 10734 10724 10716 10711 10706 10699 10689 10685 10684 10682 10682 10683 10686
10806 10808 10800 10810 10809 10816 10818 10823 10826 10827 10823 10825 10825 10826 10826 10826 10830 10832 10834 10834 10829 10821 10814 10805 10816 10801 10791 10788 10787 10782 10772 10764 10755 10748 10737 10728 10721 10713 10704 10696 10689 10685 10681 10675 10672 10670 10670 10671 10673
10789 10782 10792 10797 10801 10805 10804 10809 10809 10816 10809 10809 10812 10815 10815 10818 10821 10824 10825 10821 10819 10810 10802 10800 10798 10789 10780 10773 10772 10767 10761 10756 10747 10739 10731 10716 10710 10702 10694 10686 10677 10672 10668 10665 10662 10660 10660 10661 10662
10764 10769 10778 10794 10793 10801 10783 10789 10803 10800 10789 10798 10799 10804 10807 10807 10812 10815 10811 10808 10808 10803 10792 10789 10783 10780 10769 10763 10758 10754 10747 10742 10735 10728 10718 10709 10696 10691 10682 10675 10668 10661 10657 10655 10653 10652 10653 10652 10653
10751 10750 10773 10789 10777 10785 10759 10781 10797 10780 10780 10789 10792 10796 10800 10798 10799 10802 10795 10795 10796 10791 10778 10778 10768 10772 10759 10754 10747 10742 10736 10727 10724 10712 10705 10695 10688 10680 10672 10665 10659 10654 10649 10647 10647 10645 10645 10645 10645
10739 10753 10762 10761 10753 10764 10746 10752 10783 10775 10770 10781 10784 10786 10786 10787 10786 10782 10783 10781 10782 10779 10765 10761 10755 10764 10749 10744 10738 10731 10726 10716 10710 10704 10694 10684 10676 10668 10660 10655 10650 10644 10641 10642 10640 10638 10636 10636 10637
10727 10715 10735 10745 10744 10740 10739 10741 10769 10766 10758 10770 10774 10772 10772 10771 10771 10771 10768 10768 10767 10763 10755 10748 10745 10743 10741 10735 10729 10722 10716 10708 10699 10691 10683 10675 10668 10658 10650 10644 10639 10636 10634 10632 10632 10628 10627 10626 10627
10688 10707 10724 10733 10729 10722 10724 10729 10752 10752 10756 10755 10760 10753 10754 10756 10758 10761 10751 10753 10754 10745 10744 10739 10734 10731 10731 10726 10719 10714 10706 10698 10690 10681 10673 10662 10657 10650 10643 10636 10631 10627 10624 10621 10619 10617 10615 10614 10616
10682 10693 10707 10710 10706 10702 10709 10720 10737 10740 10741 10740 10741 10738 10740 10743 10742 10741 10739 10740 10740 10734 10731 10729 10725 10721 10719 10716 10710 10704 10697 10689 10679 10672 10665 10653 10647 10641 10633 10628 10622 10616 10612 10611 10606 10602 10602 10602 10604
10669 10681 10684 10691 10683 10692 10695 10714 10730 10722 10726 10724 10723 10729 10727 10727 10727 10727 10727 10728 10721 10722 10720 10717 10714 10710 10709 10704 10700 10695 10687 10681 10668 10662 10656 10645 10637 10632 10626 10621 10615 10608 10603 10600 10594 10591 10591 10592 10595
10649 10655 10658 10670 10672 10690 10683 10712 10712 10704 10711 10709 10719 10715 10715 10711 10713 10712 10711 10714 10711 10710 10709 10706 10703 10701 10698 10695 10691 10685 10678 10670 10662 10653 10647 10640 10629 10624 10616 10610 10605 10599 10595 10590 10587 10585 10584 10585 10587
10640 10622 10644 10652 10664 10673 10686 10689 10705 10697 10691 10706 10705 10703 10699 10697 10698 10699 10699 10697 10701 10699 10698 10696 10695 10692 10690 10687 10682 10676 10669 10661 10653 10646 10637 10633 10627 10619 10612 10604 10598 10594 10590 10586 10584 10583 10583 10583 10584
10608 10619 10626 10636 10649 10663 10675 10675 10696 10677 10694 10694 10692 10690 10688 10687 10687 10689 10688 10689 10688 10689 10688 10687 10687 10685 10682 10678 10673 10666 10660 10653 10644 10639 10632 10625 10619 10612 10605 10599 10596 10592 10589 10587 10584 10582 10582 10581 10582
10595 10602 10613 10623 10642 10668 10652 10673 10679 10670 10684 10684 10684 10682 10680 10678 10678 10679 10678 10678 10679 10679 10680 10680 10679 10678 10675 10671 10665 10658 10651 10645 10641 10633 10628 10623 10616 10609 10604 10599 10596 10594 10591 10588 10585 10584 10583 10581 10581
10580 10589 10603 10619 10633 10646 10647 10663 10665 10668 10673 10675 10675 10674 10672 10671 10669 10670 10669 10670 10671 10672 10673 10674 10674 10672 10668 10662 10657 10650 10644 10639 10635 10630 10625 10620 10615 10609 10605 10600 10599 10597 10594 10591 10588 10587 10586 10584 10586
10570 10561 10609 10604 10618 10628 10643 10651 10655 10659 10664 10666 10667 10668 10666 10663 10660 10661 10663 10663 10665 10667 10669 10670 10668 10665 10660 10655 10649 10643 10639 10635 10631 10628 10622 10619 10614 10610 10606 10603 10601 10599 10597 10594 10591 10590 10590 10590 10590
10536 10574 10576 10596 10605 10623 10634 10642 10646 10654 10656 10660 10662 10662 10659 10658 10657 10657 10659 10660 10662 10664 10665 10665 10662 10658 10653 10648 10642 10638 10635 10632 10630 10625 10621 10617 10614 10612 10607 10606 10604 10602 10601 10599 10598 10596 10597 10599 10600
10527 10548 10570 10584 10598 10614 10626 10631 10635 10644 10652 10652 10657 10656 10655 10655 10655 10656 10657 10658 10660 10661 10661 10659 10655 10651 10646 10642 10636 10633 10630 10630 10627 10625 10621 10616 10613 10611 10609 10608 10608 10607 10605 10604 10602 10603 10603 10605 10606
10508 10534 10554 10567 10594 10605 10611 10622 10628 10638 10643 10649 10651 10651 10652 10651 10653 10654 10656 10657 10658 10657 10656 10653 10649 10645 10640 10636 10631 10630 10628 10629 10627 10625 10620 10616 10612 10610 10610 10608 10609 10609 10609 10608 10607 10607 10607 10608 10610